Location: Biberach+an+der+Riss
(48.0937°N, 9.7888°E)
Time: 14:36:43
(UTC+02:00)

ISS - Visible Passes

Search period start: 24 July 2017 00:00
Search period end: 03 August 2017 00:00
Orbit: 400 x 408 km, 51.6° (Epoch: 24 July)

Date Brightness Start Highest point End Pass type
(mag) Time Alt. Az. Time Alt. Az. Time Alt. Az.
24 Jul -2.7 00:59:53 10° W 01:03:02 44° N 01:06:11 10° ENE visible
24 Jul -3.2 02:36:37 10° WNW 02:39:50 55° NNE 02:43:04 10° E visible
24 Jul -3.5 04:13:11 10° WNW 04:16:17 41° SSW 04:19:23 10° SE visible
24 Jul -3.6 22:31:01 10° SW 22:34:09 47° SSE 22:37:18 10° ENE visible
25 Jul -3.0 00:07:27 10° W 00:10:38 52° NNW 00:13:50 10° ENE visible
25 Jul -2.8 01:44:17 10° WNW 01:47:27 46° N 01:50:37 10° E visible
25 Jul -4.0 03:20:48 10° WNW 03:24:03 66° SSW 03:27:17 10° SE visible
25 Jul -1.9 04:58:29 10° WSW 05:00:01 13° SW 05:01:32 10° SSW visible
25 Jul -2.9 21:39:06 10° SSW 21:41:57 28° SE 21:44:49 10° E visible
25 Jul -3.5 23:15:01 10° WSW 23:18:15 67° NNW 23:21:31 10° ENE visible
26 Jul -2.6 00:51:54 10° WNW 00:55:02 42° N 00:56:44 22° ENE visible
26 Jul -1.5 02:28:28 10° WNW 02:29:16 16° WNW 02:29:16 16° WNW visible
26 Jul -3.9 22:22:39 10° WSW 22:25:55 86° SSE 22:29:10 10° ENE visible
26 Jul -2.6 23:59:27 10° WNW 00:02:36 43° N 00:05:20 13° ENE visible
27 Jul -2.2 01:36:08 10° WNW 01:37:56 29° NW 01:37:56 29° NW visible
27 Jul -2.9 23:06:58 10° W 23:10:09 48° N 23:13:20 10° ENE visible
28 Jul -2.9 00:43:47 10° WNW 00:46:57 48° N 00:46:57 48° N visible
28 Jul -3.3 22:14:29 10° W 22:17:43 60° NNW 22:20:58 10° ENE visible
28 Jul -2.7 23:51:22 10° WNW 23:54:30 43° N 23:56:05 24° ENE visible
29 Jul -1.4 01:27:55 10° WNW 01:28:42 16° WNW 01:28:42 16° WNW visible
29 Jul -2.6 22:58:54 10° WNW 23:02:01 42° N 23:05:09 10° ENE visible
30 Jul -2.7 00:35:33 10° WNW 00:37:53 42° NW 00:37:53 42° NW visible
30 Jul -2.8 22:06:23 10° W 22:09:32 46° N 22:12:42 10° ENE visible
30 Jul -3.1 23:43:09 10° WNW 23:46:21 51° NNE 23:47:07 40° ENE visible
31 Jul -0.9 01:19:41 10° WNW 01:19:44 10° WNW 01:19:44 10° WNW visible
31 Jul -2.8 22:50:43 10° WNW 22:53:52 44° N 22:56:21 15° ENE visible
01 Aug -2.2 00:27:14 10° WNW 00:28:58 29° WNW 00:28:58 29° WNW visible
01 Aug -2.7 21:58:13 10° WNW 22:01:21 42° N 22:04:29 10° ENE visible
01 Aug -3.8 23:34:50 10° WNW 23:38:06 74° NNE 23:38:14 72° NE visible
02 Aug -3.3 22:42:24 10° WNW 22:45:37 55° NNE 22:47:30 22° E visible
